Location: Salluit
(62.2046°N, 75.6437°W)
Time: 17:24:17
(UTC-04:00)

SL-21 R/B - Visible Passes

Search period start: 24 April 2014 00:00
Search period end: 04 May 2014 00:00
Orbit: 322 x 372 km, 78.9° (Epoch: 23 April)

Date Brightness Start Highest point End Pass type
(mag) Time Alt. Az. Time Alt. Az. Time Alt. Az.
24 Apr 7.4 02:24:33 10° NNE 02:25:49 12° NE 02:27:04 10° ENE visible
24 Apr 4.2 03:56:13 10° NNW 03:59:02 68° ENE 04:01:47 10° SSE visible
25 Apr 6.8 02:48:54 10° N 02:51:07 20° NE 02:53:18 10° ESE visible
26 Apr 5.4 03:13:30 10° NNW 03:16:11 39° ENE 03:18:48 10° SE visible
27 Apr 7.0 02:06:16 10° N 02:07:55 14° NE 02:09:34 10° E visible
27 Apr 3.8 03:38:11 10° NNW 03:41:00 87° WSW 03:43:43 10° SSE visible
28 Apr 6.2 02:30:27 10° N 02:32:51 25° NE 02:35:12 10° ESE visible
29 Apr 7.4 01:23:44 10° NNE 01:24:15 10° NE 01:24:46 10° NE visible
29 Apr 4.7 02:54:48 10° NNW 02:57:32 51° ENE 03:00:12 10° SE visible
30 Apr 6.8 01:47:06 10° N 01:49:02 17° NE 01:50:57 10° E visible
30 Apr 3.8 03:19:13 10° NNW 03:21:58 64° WSW 03:24:39 10° SSE visible
01 May 5.7 02:11:04 10° N 02:13:35 30° ENE 02:16:04 10° ESE visible
01 May 4.9 03:43:44 10° NW 03:46:08 27° WSW 03:48:29 10° SSW visible
02 May 7.0 01:03:35 10° NNE 01:04:45 12° NE 01:05:54 10° ENE visible
02 May 4.1 02:35:08 10° NNW 02:37:54 69° ENE 02:40:36 10° SSE visible
03 May 6.4 01:27:02 10° N 01:29:10 20° NE 01:31:17 10° ESE visible
03 May 4.1 02:59:17 10° NNW 03:01:57 47° WSW 03:04:34 10° S visible
